CW7222 Weather Reports


time (UTC)temp
F
wind
direction
speed
knots
gust
knots
rain 1hr
in
rain 24hr
in
rain mn
in
humidity
%
barometer
mb
20260506184331 63 136 2.6 7.8 0.00 0.00 0.00 83 1010.2
20260506183342 63 153 2.6 7.8 0.00 0.00 0.00 82 1010.2
20260506182351 63 176 4.3 7.8 0.00 0.00 0.00 82 1009.9
20260506181338 63 138 4.3 8.7 0.00 0.00 0.00 82 1009.9
20260506180347 63 164 4.3 6.1 0.00 0.00 0.00 82 1009.9
20260506175351 63 140 4.3 7.8 0.00 0.00 0.00 82 1009.9
20260506174339 63 120 3.5 7.8 0.00 0.00 0.00 81 1009.8
20260506173349 64 177 4.3 7.0 0.00 0.00 0.00 81 1009.8
20260506172337 64 129 5.2 7.8 0.00 0.00 0.00 80 1009.6
20260506170334 64 153 3.5 7.8 0.00 0.00 0.00 80 1009.5
20260506165343 64 132 5.2 8.7 0.00 0.00 0.00 78 1009.4
20260506164332 65 175 0.0 7.0 0.00 0.00 0.00 77 1009.4
20260506163338 66 145 3.5 10.4 0.00 0.00 0.00 76 1009.4
20260506161336 65 165 0.0 7.0 0.00 0.00 0.00 75 1009.4
20260506160346 65 147 0.0 1.7 0.00 0.00 0.00 73 1009.4
20260506154347 66 171 0.9 5.2 0.00 0.00 0.00 71 1009.4
20260506153332 66 184 0.9 6.1 0.00 0.00 0.00 69 1009.4
20260506152340 66 178 4.3 7.0 0.00 0.00 0.00 67 1009.4
20260506151348 66 153 0.9 6.1 0.00 0.00 0.00 65 1009.5
20260506145346 66 153 0.9 5.2 0.00 0.00 0.00 70 1009.5
20260506144339 66 150 0.0 6.1 0.00 0.00 0.00 70 1009.7
20260506142334 66 154 1.7 7.0 0.00 0.00 0.00 63 1009.9
20260506135336 66 167 5.2 9.6 0.00 0.00 0.00 75 1009.9
20260506134347 65 165 4.3 9.6 0.00 0.00 0.00 74 1010.1
20260506133333 65 163 5.2 10.4 0.00 0.00 0.00 73 1010.1
20260506132341 65 189 5.2 7.8 0.00 0.00 0.00 73 1010.2
20260506131349 65 168 5.2 8.7 0.00 0.00 0.00 70 1010.4
20260506130335 65 207 5.2 8.7 0.00 0.00 0.00 71 1010.4
20260506125344 65 135 5.2 9.6 0.00 0.00 0.00 70 1010.4
20260506124333 65 150 0.0 9.6 0.00 0.00 0.00 72 1010.4
20260506123339 65 140 3.5 8.7 0.00 0.00 0.00 69 1010.4
20260506122348 65 100 5.2 8.7 0.00 0.00 0.00 65 1010.4
20260506121332 65 173 3.5 8.7 0.00 0.00 0.00 60 1010.4
20260506120344 65 109 4.3 8.7 0.00 0.00 0.00 61 1010.4
20260506115351 65 161 4.3 7.8 0.00 0.00 0.00 61 1010.4
20260506114338 65 129 4.3 7.0 0.00 0.00 0.00 60 1010.4
20260506113346 64 121 2.6 6.1 0.00 0.00 0.00 60 1010.4
20260506111341 64 107 2.6 7.0 0.00 0.00 0.00 62 1010.6
20260506110332 64 171 3.5 7.8 0.00 0.00 0.00 63 1010.6
20260506104336 64 166 1.7 7.0 0.00 0.00 0.00 64 1010.9
20260506102350 63 149 4.3 7.8 0.00 0.00 0.00 66 1010.8
20260506101338 63 140 3.5 7.8 0.00 0.00 0.00 65 1010.9
20260506100347 63 165 0.0 7.8 0.00 0.00 0.00 71 1010.9
20260506095331 63 184 3.5 7.0 0.00 0.00 0.00 72 1010.9
20260506094340 64 157 1.7 6.1 0.00 0.00 0.00 72 1010.9
20260506092336 64 182 0.0 6.1 0.00 0.00 0.00 73 1010.9
20260506090335 64 154 0.0 0.0 0.00 0.00 0.00 74 1010.9
20260506085347 63 153 0.0 0.0 0.00 0.00 0.00 74 1010.6
20260506084331 63 138 0.0 6.1 0.00 0.00 0.00 73 1010.5
20260506083339 63 159 0.0 7.8 0.00 0.00 0.00 73 1010.5
20260506081332 63 138 1.7 4.3 0.00 0.00 0.00 75 1010.5
20260506080341 63 159 0.0 0.0 0.00 0.00 0.00 73 1010.5
20260506073347 63 49 0.9 1.7 0.00 0.00 0.00 73 1010.3
20260506072335 62 27 1.7 3.5 0.00 0.00 0.00 74 1010.2
20260506071342 60 315 2.6 6.1 0.00 0.00 0.00 73 1010.0
20260506070331 60 306 4.3 7.0 0.00 0.00 0.00 72 1010.0
20260506062341 59 323 3.5 5.2 0.00 0.00 0.00 82 1009.9
20260506061350 58 312 1.7 4.3 0.00 0.00 0.00 84 1009.9
20260506051347 55 309 0.0 0.0 0.00 0.00 0.00 89 1009.4
20260506050340 55 309 0.0 0.0 0.00 0.00 0.00 89 1009.4
20260506044333 55 309 0.9 2.6 0.00 0.00 0.00 89 1009.3
20260506043340 55 309 0.9 2.6 0.00 0.00 0.00 89 1009.3
20260506042349 55 309 0.0 1.7 0.00 0.00 0.00 89 1009.2
20260506041335 56 309 0.9 1.7 0.00 0.00 0.00 89 1009.1
20260506040349 56 309 0.9 1.7 0.00 0.00 0.00 88 1009.1
20260506033351 56 309 0.0 1.7 0.00 0.00 0.00 89 1009.0
20260506032338 56 309 0.9 3.5 0.00 0.00 0.00 89 1009.0
20260506030340 56 309 0.0 0.9 0.00 0.00 0.00 88 1009.1
20260506025348 55 309 0.0 1.7 0.00 0.00 0.00 88 1009.0
20260506024334 55 309 0.9 1.7 0.00 0.00 0.00 88 1009.0
20260506023341 55 309 0.9 1.7 0.00 0.00 0.00 87 1009.0
20260506022350 54 309 1.7 2.6 0.00 0.00 0.00 87 1008.9
20260506021341 54 309 1.7 2.6 0.00 0.00 0.00 87 1008.9
20260506020333 54 311 1.7 4.3 0.00 0.00 0.00 86 1008.9
20260506015341 54 304 0.9 3.5 0.00 0.00 0.00 86 1008.9
20260506013337 54 310 0.9 2.6 0.00 0.00 0.00 86 1008.8
20260506012349 54 310 1.7 2.6 0.00 0.00 0.00 86 1008.9
20260506011340 54 309 0.9 3.5 0.00 0.00 0.00 86 1008.9
20260506010349 54 311 1.7 2.6 0.00 0.00 0.00 85 1008.9
20260506005338 54 313 1.7 3.5 0.00 0.00 0.00 85 1008.9
20260506002346 55 316 0.9 2.6 0.00 0.00 0.00 84 1009.0
20260506001338 55 316 1.7 2.6 0.00 0.00 0.00 84 1009.2
20260506000348 56 316 0.9 1.7 0.00 0.00 0.00 84 1009.2
20260505235334 56 316 0.9 3.5 0.00 0.00 0.00 83 1009.4
20260505232346 58 319 0.9 2.6 0.00 0.00 0.00 82 1009.2
20260505231337 59 319 1.7 3.5 0.00 0.00 0.00 79 1009.1
20260505230351 60 338 0.0 0.0 0.00 0.00 0.00 76 1009.1
20260505224347 61 338 0.0 0.0 0.00 0.00 0.00 70 1009.5
20260505223334 61 339 0.0 3.5 0.00 0.00 0.00 69 1009.5
20260505222343 61 339 0.9 4.3 0.00 0.00 0.00 69 1009.8
20260505221332 61 355 2.6 6.1 0.00 0.00 0.00 69 1009.8
20260505215332 60 331 2.6 6.1 0.00 0.00 0.00 69 1009.9
20260505214341 60 329 2.6 4.3 0.00 0.00 0.00 69 1009.6
20260505213349 60 319 3.5 5.2 0.00 0.00 0.00 70 1009.6
20260505212335 60 310 1.7 4.3 0.00 0.00 0.00 70 1009.4
20260505211347 59 325 2.6 3.5 0.00 0.00 0.00 69 1009.4
20260505210351 59 332 1.7 4.3 0.00 0.00 0.00 69 1009.4
20260505204349 60 274 1.7 5.2 0.00 0.04 0.00 69 1008.9
20260505203336 60 309 0.0 0.0 0.00 0.04 0.00 67 1008.9
20260505202344 61 310 0.0 0.0 0.00 0.04 0.00 67 1008.4
20260505201333 61 315 0.0 6.1 0.00 0.04 0.00 66 1008.3
20260505200351 61 312 4.3 7.8 0.00 0.04 0.00 66 1008.3
20260505193338 61 294 5.2 9.6 0.00 0.04 0.00 68 1008.0
20260505192345 62 317 4.3 13.9 0.00 0.04 0.00 68 1008.3
20260505191335 62 311 1.7 7.8 0.00 0.04 0.00 67 1008.1
20260505185350 62 295 2.6 3.5 0.00 0.04 0.00 66 1007.8